Zurück zum Katalog

STARLINK-5936

AktivKommunikationVLEO
NORAD 56011·PAYLOAD·🇺🇸 United States

Gestartet Mar 24, 2023 von Cape Canaveral Space Force Station

Loading…

Nächste Überflüge (nächste 24 Stunden)

TLE

AktuellSource: CelesTrak SupGP

Epoche: Sep 14, 2026, 21:31 UTC

1 56011C 23042AB  26257.89701389  .00056376  00000+0  20417-2 0  2570
2 56011  43.0044  56.5678 0001831 274.3963  89.1101 15.27554085    17

Verfolge STARLINK-5936 in Echtzeit mit AllMySat

Download on the App Store